Theta_e
306 305 304 304 304 305 305 305 305 305 304 300 297 297 287 288 287 296 300 303 302 295 285 287 284 283 284 290 291 292 291 289 290 290 291 289 292 290 289 290 290 293 289 290 288 289 285 287 283 285 286 287 290 292 292 294 292 292 288 290 291 293 282 277 279 283 285 287 288 288 288 287 284 284 284 281 280 280 278 276 276 277 277 277 273 274 279
305 305 304 304 304 304 305 305 305 305 304 300 299 292 289 289 288 290 300 302 299 289 283 283 285 287 290 289 289 292 291 289 288 288 289 288 288 287 288 292 294 291 293 290 287 291 283 290 289 286 288 287 294 294 293 295 291 291 288 285 291 282 283 280 277 276 278 279 281 282 285 286 281 279 281 282 282 282 281 282 282 275 278 279 275 272 278
305 305 304 304 304 304 304 305 305 305 305 304 298 293 293 290 291 290 294 302 298 287 283 284 285 286 284 284 284 286 288 290 291 290 289 291 289 288 287 292 294 291 293 288 290 290 288 285 291 290 289 288 295 296 295 296 294 293 295 295 293 285 283 280 274 272 269 267 267 269 274 279 280 282 281 282 282 281 281 275 277 274 277 280 275 276 283
306 305 305 304 304 304 304 305 305 305 304 304 299 296 293 287 281 287 287 290 292 292 294 292 284 280 281 280 283 285 285 288 291 292 289 291 290 288 289 292 294 292 290 288 287 287 291 287 286 287 286 289 293 297 297 296 294 298 299 297 291 284 286 283 281 279 276 277 276 279 282 279 278 279 282 281 282 283 282 279 276 276 277 278 280 281 283
306 305 305 304 304 304 305 304 304 304 304 304 298 297 290 286 282 281 281 285 288 290 288 282 281 280 284 278 284 285 286 286 287 291 284 290 289 289 289 292 290 288 286 285 286 288 287 290 288 288 288 291 292 297 295 297 298 301 298 296 289 285 283 284 284 283 283 284 281 283 285 280 280 279 280 281 281 281 281 278 276 281 279 276 282 285 284
306 305 305 304 304 304 304 304 305 304 304 304 299 289 288 281 284 285 286 282 280 282 281 285 284 284 281 280 286 284 283 283 281 288 290 290 290 284 284 287 288 287 286 287 283 286 286 288 285 291 291 291 293 294 296 293 299 298 294 295 291 284 281 284 284 283 285 286 284 285 284 284 283 280 280 280 281 281 280 280 283 284 279 277 283 285 285
306 305 305 304 304 304 304 304 305 305 303 303 293 286 288 286 286 288 290 281 282 282 285 287 285 284 283 281 285 283 283 282 284 283 284 287 285 287 281 284 286 287 288 287 284 286 283 284 289 288 288 290 290 289 292 296 297 294 293 292 292 287 283 284 285 284 285 284 284 285 284 283 284 283 281 281 281 281 282 284 285 285 283 285 285 286 286
306 305 305 305 304 303 304 304 305 304 303 300 295 292 286 284 283 283 288 288 285 286 285 285 284 280 286 280 282 284 283 283 285 286 283 280 283 288 285 285 286 287 287 286 284 286 289 288 285 290 289 288 290 289 290 288 295 295 290 290 292 288 283 286 284 281 282 285 285 284 284 284 282 284 283 281 281 282 283 284 285 287 285 285 285 285 285
306 306 305 305 304 303 304 304 305 304 303 294 292 292 293 291 290 290 286 283 284 287 286 284 283 279 280 280 283 284 284 284 286 285 288 285 283 287 284 286 286 287 286 285 286 291 291 290 289 290 290 286 292 290 291 293 287 291 289 290 290 289 284 287 284 280 279 283 285 285 285 285 283 284 282 281 282 281 283 282 285 284 283 284 284 283 284
306 306 305 305 304 303 304 304 305 304 303 294 294 290 296 294 295 293 288 283 288 284 286 285 283 278 282 284 284 283 284 286 287 282 286 289 290 289 288 287 285 284 284 284 288 291 291 290 291 291 292 295 294 295 295 296 292 288 287 292 288 287 285 283 284 282 277 282 283 284 283 282 280 281 284 283 284 286 287 288 289 289 289 285 281 283 289
307 306 306 305 304 304 303 304 305 305 300 295 294 293 295 293 291 292 291 284 285 285 283 283 283 285 285 286 284 286 286 287 287 282 282 288 288 290 289 287 285 284 284 289 294 294 293 293 293 294 293 294 294 295 296 295 296 292 289 287 288 289 287 285 287 282 281 282 281 282 279 270 274 285 290 287 285 285 285 286 288 290 291 288 290 290 292
307 307 306 305 305 304 303 304 304 305 302 299 298 295 298 298 295 294 287 283 284 288 284 281 282 284 284 286 285 285 285 285 285 288 284 286 288 290 289 288 286 282 291 296 295 295 295 298 296 295 295 295 296 297 297 295 295 297 295 290 287 289 288 286 287 283 281 280 277 276 270 274 284 289 291 291 290 289 287 289 290 291 291 291 291 291 292
307 307 306 306 305 304 304 303 304 304 305 302 298 292 295 299 295 291 290 286 283 285 283 284 287 287 286 286 285 285 287 288 288 288 288 286 286 288 289 288 287 290 295 293 294 292 291 289 288 287 289 291 293 295 295 296 296 298 298 297 292 285 285 284 285 283 282 279 275 270 271 281 288 291 297 296 292 290 289 287 290 292 292 292 291 292 293
307 307 306 306 305 305 304 304 303 304 304 304 299 297 296 296 293 292 291 285 284 287 288 286 287 285 285 286 286 287 288 287 287 288 285 287 287 287 290 292 293 295 295 294 292 291 287 284 282 284 287 288 288 288 291 295 296 296 295 297 298 294 290 286 284 286 281 280 277 279 282 284 288 290 293 294 290 291 286 282 286 292 297 296 292 294 297
307 307 307 306 306 305 305 304 304 304 304 304 301 298 295 295 297 294 295 291 284 286 288 282 284 286 287 287 287 286 285 286 285 285 288 289 287 290 291 293 295 295 295 292 290 286 283 282 281 283 284 284 281 284 291 287 294 296 296 297 296 295 287 286 285 283 285 283 280 276 273 275 281 292 296 299 300 299 298 291 286 294 301 302 301 299 300
307 307 307 306 306 306 305 304 304 304 304 304 301 300 298 298 296 296 294 290 287 281 284 288 289 289 287 287 288 285 284 284 286 286 285 285 286 290 292 294 295 295 294 294 288 283 281 281 281 283 282 283 288 287 285 290 287 295 297 296 295 294 293 289 285 284 285 283 279 276 274 278 286 291 297 300 301 301 299 289 285 293 300 303 303 302 303
307 307 307 307 306 306 306 305 304 304 304 304 300 300 298 300 297 295 293 292 290 284 292 292 291 291 288 287 287 285 286 284 286 282 281 282 285 287 290 294 295 294 292 289 286 282 282 280 281 283 284 287 285 284 288 287 285 287 292 293 292 290 286 285 284 283 283 281 280 278 275 281 290 295 298 300 301 301 291 281 282 293 300 303 303 303 303
307 307 307 307 306 306 306 305 304 304 304 305 302 299 299 301 300 297 294 291 285 285 290 292 290 287 286 287 285 288 290 288 288 288 285 286 286 285 288 290 288 293 294 286 285 280 279 279 280 280 281 288 288 290 281 287 284 285 285 286 285 285 284 284 283 282 282 281 276 275 279 285 292 297 299 301 301 293 283 280 284 297 301 303 304 304 304
307 306 307 307 306 306 306 306 305 304 304 304 303 301 300 302 300 298 295 291 288 283 291 295 294 290 292 293 290 291 291 289 288 284 284 283 284 288 290 290 291 284 290 283 282 280 279 279 283 284 283 284 286 283 288 285 284 289 289 285 285 285 285 285 285 284 282 279 278 278 280 287 295 299 300 301 294 283 282 291 303 303 303 304 305 304 305
306 306 307 307 306 306 306 306 305 304 304 304 303 297 299 302 302 300 295 290 291 288 291 292 293 290 292 289 287 286 287 288 287 285 284 281 288 290 287 281 286 288 285 284 280 281 279 279 281 285 283 283 283 288 285 286 291 288 288 291 285 286 284 284 284 286 284 280 277 277 278 286 298 299 298 301 287 286 299 303 304 306 305 305 305 306 307
306 306 306 306 306 306 306 306 306 305 304 304 303 298 296 302 302 301 300 297 291 286 288 295 294 292 293 292 292 292 290 287 287 284 287 286 289 286 278 278 284 285 282 283 280 280 281 280 281 282 287 286 286 286 282 284 287 296 293 291 286 292 285 285 285 289 283 283 281 281 286 293 298 299 290 298 300 303 304 304 301 305 305 305 305 306 308
306 306 306 306 306 307 306 306 306 305 304 304 304 300 295 300 302 302 302 300 292 288 290 294 295 294 295 295 295 295 293 292 293 293 288 286 290 288 286 288 287 286 287 287 281 280 283 282 284 282 282 283 285 282 286 283 283 289 296 295 285 294 290 291 285 292 288 285 287 293 296 296 300 301 301 302 304 306 306 305 305 304 305 307 306 306 307
306 306 306 306 306 306 306 306 306 305 305 305 303 299 295 298 300 303 301 295 296 296 297 296 296 295 297 297 298 298 297 298 296 295 294 289 285 288 288 287 287 290 289 289 285 283 283 284 280 284 284 284 284 284 284 284 283 285 286 294 293 297 299 298 294 292 296 296 297 298 299 301 301 304 304 303 304 307 307 306 304 306 306 307 306 307 307
306 306 306 306 306 306 306 306 306 305 304 304 303 299 297 299 300 300 298 296 291 287 291 293 287 283 287 290 294 297 298 297 297 297 298 296 286 283 286 290 291 290 287 289 289 287 284 284 285 286 282 286 290 284 282 280 279 288 288 287 293 296 298 295 290 293 290 286 295 298 299 301 302 303 306 306 307 306 307 305 305 306 307 307 308 307 308
306 306 306 306 306 306 306 306 306 305 304 304 303 303 302 299 301 300 295 287 286 286 283 286 288 292 294 296 297 296 297 298 299 298 297 296 294 288 287 289 292 289 289 290 291 287 282 284 284 283 281 286 289 284 290 284 285 291 285 286 286 287 299 294 293 292 288 289 296 298 301 302 304 304 303 303 304 306 307 306 307 307 308 308 308 308 308
306 306 306 306 306 306 306 306 306 305 304 304 304 300 298 297 300 301 299 297 296 292 284 283 288 297 296 295 293 295 298 298 297 297 296 296 297 296 294 294 293 293 292 292 291 286 284 283 282 281 282 284 291 285 284 289 289 291 287 287 291 292 296 288 294 291 293 295 297 299 300 301 303 304 306 305 306 306 306 306 306 307 307 307 308 308 307
306 306 306 305 306 306 306 306 306 305 304 304 302 301 300 300 301 299 295 295 290 285 286 283 287 292 294 292 296 298 298 297 296 295 295 296 295 296 295 293 291 290 290 288 286 285 285 284 281 283 284 285 287 289 289 289 289 288 284 289 294 292 287 292 291 286 286 288 293 297 290 290 298 302 303 305 306 307 306 306 306 306 306 307 307 308 309
306 306 305 306 306 306 306 306 306 305 304 304 303 301 301 299 299 300 300 299 292 285 285 285 286 290 296 292 296 295 296 296 295 294 292 293 293 293 292 292 291 289 287 286 284 284 284 282 284 282 281 285 286 287 291 292 292 289 288 289 292 291 292 291 288 286 288 294 298 299 299 298 300 302 303 305 306 306 305 305 305 306 306 308 308 306 306
305 305 306 306 306 306 306 306 305 304 304 303 300 299 298 299 300 300 300 301 299 293 290 289 292 290 285 290 296 294 295 294 293 292 292 292 292 292 291 291 290 290 289 285 282 281 281 283 281 284 286 286 288 285 287 284 284 285 289 292 293 296 297 296 295 296 297 298 299 301 299 299 302 304 304 305 306 306 305 306 306 307 307 308 307 307 305
306 306 306 306 306 306 306 305 305 304 303 301 298 295 290 292 300 300 300 302 300 297 288 285 283 286 294 292 290 292 293 294 293 292 291 291 291 291 292 291 290 292 290 285 284 283 283 284 281 284 288 293 289 282 284 283 284 289 293 295 297 297 296 296 298 296 296 299 301 303 302 303 304 304 304 306 307 306 304 304 305 305 307 308 307 306 307
306 306 306 306 306 306 306 305 304 304 303 299 295 288 286 284 294 303 303 302 302 296 288 287 285 289 286 289 289 290 291 293 292 292 292 292 292 292 293 293 291 293 285 285 286 284 281 281 282 285 289 293 290 286 285 285 284 286 293 295 296 296 296 295 298 300 300 302 304 303 302 301 302 303 304 305 306 305 305 305 306 307 308 307 307 306 306
306 306 306 306 306 306 305 305 304 303 301 297 293 290 288 291 298 302 303 302 300 294 287 283 283 281 281 285 289 292 292 292 292 292 291 293 292 292 291 293 289 293 289 284 282 285 284 283 284 287 288 291 293 286 288 286 283 287 293 295 296 297 299 300 301 303 302 302 302 299 298 300 301 301 300 304 304 305 305 305 306 306 307 306 308 308 307
306 306 306 306 306 305 305 304 304 302 299 300 303 303 303 303 303 303 303 300 296 290 288 283 280 281 281 284 290 291 292 291 289 289 289 292 292 292 289 291 290 290 299 289 284 283 284 281 281 286 289 292 287 286 287 283 288 293 295 295 294 296 298 299 300 301 301 302 300 298 297 298 300 303 303 303 304 305 306 306 307 307 307 306 306 307 308
306 306 306 305 305 305 304 303 304 302 302 299 294 295 299 302 302 303 301 298 292 290 287 285 282 282 282 288 283 287 292 287 285 287 285 291 292 291 287 288 289 286 289 286 284 286 284 286 287 286 290 287 285 285 282 286 293 294 295 294 295 297 298 298 299 299 300 300 301 301 301 301 302 303 305 305 305 306 306 307 306 306 305 305 305 305 305
306 306 305 305 305 304 303 303 300 298 294 295 295 298 299 303 303 303 300 293 286 285 286 286 286 282 281 280 276 283 291 288 284 285 284 288 291 290 288 285 285 286 286 291 285 283 283 287 289 286 286 284 280 281 284 291 292 294 296 296 298 298 297 296 297 298 299 299 300 300 301 301 302 302 303 304 305 305 305 305 305 304 304 304 304 305 305
305 305 305 304 304 303 301 300 298 295 293 293 294 301 304 304 305 301 300 299 294 286 285 285 284 282 282 277 276 281 291 286 286 286 287 285 288 289 286 284 283 284 289 286 282 283 285 289 286 282 280 282 282 287 291 294 293 294 295 296 297 297 297 297 297 298 299 297 298 298 299 300 300 300 302 303 304 305 305 305 304 303 302 301 301 303 305
304 304 304 303 301 297 293 291 298 296 294 297 299 304 304 302 300 300 297 295 296 297 289 285 283 283 283 280 279 283 287 281 285 282 282 283 284 283 283 282 282 284 285 282 278 283 287 289 283 282 281 283 287 291 295 296 295 295 295 296 297 297 297 298 299 298 297 297 299 299 298 298 298 300 301 302 303 304 304 302 301 300 298 298 299 299 300
304 303 300 296 293 287 287 288 295 299 303 302 301 294 291 292 284 285 288 287 290 294 288 289 284 286 287 284 280 286 285 281 283 282 280 278 284 282 280 283 283 285 280 279 281 288 282 280 280 281 284 289 292 294 295 297 297 297 296 296 296 296 296 296 297 297 295 295 295 297 298 299 298 298 299 300 302 301 301 300 300 299 298 298 298 299 300
301 298 296 295 290 286 287 292 301 304 300 298 294 287 284 285 285 284 284 287 288 286 288 287 285 288 286 283 284 288 286 282 280 279 280 281 282 281 281 280 282 281 279 279 283 289 283 280 279 279 283 287 290 292 295 297 299 298 297 296 296 295 295 296 297 296 294 293 294 296 296 295 296 297 299 299 300 300 299 300 299 298 297 297 297 298 299
296 292 289 289 288 289 296 301 305 299 296 288 289 284 281 285 283 280 285 283 284 286 287 284 288 286 287 284 282 282 287 285 279 276 278 284 285 282 281 281 281 281 276 276 280 284 283 280 280 278 281 286 289 293 295 295 295 296 296 296 295 295 295 295 295 297 297 297 297 297 298 298 299 300 300 300 299 298 299 300 300 299 298 296 294 297 296
294 293 291 288 293 295 296 299 300 295 289 286 287 286 282 280 282 281 282 281 280 282 286 283 284 283 285 285 284 282 288 290 285 286 282 282 284 283 279 279 282 280 276 276 279 281 278 278 279 282 285 289 290 292 294 294 294 294 295 295 294 294 294 295 295 296 296 296 296 297 298 299 300 301 303 303 301 298 297 297 298 298 297 297 296 295 295
295 294 295 298 298 299 297 295 289 287 287 287 283 279 281 280 280 281 279 276 276 277 280 284 281 282 282 286 286 286 284 289 287 284 283 281 283 282 278 279 280 277 275 278 281 277 277 277 278 281 283 288 292 293 292 292 293 293 293 293 293 293 294 294 294 295 296 295 295 296 297 298 298 301 302 302 301 298 296 296 297 296 296 295 295 296 296
303 301 300 294 292 290 288 286 289 287 282 282 279 276 277 276 277 276 275 279 280 281 280 288 286 288 288 291 286 288 284 286 287 282 282 280 281 281 280 278 277 276 278 279 279 275 276 277 279 280 285 288 291 292 292 292 292 292 292 292 292 293 293 293 294 294 295 295 295 295 296 297 298 298 299 299 298 296 295 294 295 296 295 294 295 295 296
299 297 291 287 288 288 288 281 287 285 282 282 279 275 275 273 274 277 276 276 278 281 282 285 284 286 282 287 286 283 286 287 286 282 282 281 282 278 277 277 278 280 280 276 274 275 278 281 283 284 287 288 292 290 291 291 292 292 292 292 292 293 293 293 293 293 294 295 295 295 296 296 297 299 299 297 296 296 294 294 294 293 293 293 295 294 294
290 287 287 286 284 286 285 279 288 283 278 279 280 276 275 273 274 276 278 281 283 283 286 286 286 286 283 283 284 283 284 283 283 282 280 281 280 277 277 275 275 277 278 275 271 270 276 279 282 284 286 287 290 290 290 291 291 291 291 291 291 291 292 292 292 292 292 293 293 294 295 295 296 297 298 298 297 296 295 294 294 294 293 293 293 294 294
287 286 285 282 280 284 284 281 282 279 282 281 280 280 279 279 277 278 283 284 284 285 285 286 286 286 284 285 284 284 283 280 281 281 280 278 276 275 276 279 278 277 274 271 271 274 274 278 280 283 286 287 289 290 290 291 291 291 291 289 290 290 291 291 291 291 291 292 293 293 294 295 296 296 297 298 298 297 297 295 294 293 293 293 293 293 293
287 288 286 286 282 284 284 280 280 282 282 281 282 283 283 284 284 284 283 285 285 286 286 286 286 286 286 284 284 284 283 282 282 281 280 279 277 278 280 279 275 273 272 271 271 271 276 280 282 284 286 288 287 288 289 290 290 290 290 290 289 290 290 290 290 290 290 291 292 293 293 293 294 296 297 297 298 297 296 295 295 293 294 295 294 292 292
285 288 286 281 279 283 281 282 283 283 284 283 281 283 285 285 285 285 287 286 287 287 286 286 284 281 282 284 284 281 279 279 281 280 280 280 280 276 273 273 273 272 272 271 270 275 279 281 284 287 287 287 287 288 289 289 289 289 289 289 289 289 289 289 289 289 289 290 291 291 292 291 293 295 297 296 296 297 297 296 295 294 293 293 292 291 291
288 286 284 284 284 283 282 282 283 282 282 284 283 284 285 284 284 286 288 287 286 287 286 283 279 282 281 280 281 280 280 281 278 278 280 277 276 272 272 270 272 272 274 276 280 281 283 286 288 287 287 287 287 288 287 288 288 288 288 289 289 289 289 288 288 288 289 290 290 290 289 290 293 295 296 296 296 298 298 295 294 294 292 293 293 292 292
286 286 286 284 283 284 282 282 281 280 283 284 285 285 285 284 284 287 288 287 286 286 285 286 285 283 281 280 277 277 277 277 278 279 276 274 273 274 275 272 273 274 281 285 283 284 287 288 287 288 286 286 286 287 287 287 287 288 288 288 289 288 287 287 287 288 288 289 289 288 288 290 292 293 295 295 296 297 297 295 294 292 292 291 291 292 293
288 286 285 286 284 283 283 280 279 277 281 283 283 283 283 284 285 286 288 289 288 284 283 282 281 280 279 276 275 274 276 279 279 277 275 274 275 274 272 272 276 281 282 285 286 287 288 288 288 287 286 286 285 286 286 287 287 287 288 288 288 287 286 286 287 287 288 288 288 286 288 289 290 291 292 294 294 293 293 293 293 293 293 292 291 292 293
285 283 284 284 285 284 284 285 285 284 284 285 285 286 286 286 286 288 289 287 286 285 283 282 282 279 276 274 276 277 279 279 277 276 276 276 277 274 274 277 280 282 286 288 289 289 288 288 288 287 287 286 286 286 286 286 286 286 287 287 286 286 286 286 286 286 287 287 287 287 287 288 289 289 290 290 290 290 289 290 291 292 293 293 293 293 292
Wind_Speed
15 16 18 18 20 21 22 23 23 21 21 9 8 3 3 4 2 3 4 3 2 4 1 1 1 1 4 5 3 3 4 3 2 3 2 3 2 1 1 5 2 4 5 3 4 4 5 6 4 5 4 9 13 10 6 4 7 6 2 5 1 6 0 2 9 8 8 10 11 11 8 4 3 5 4 4 6 6 7 6 3 1 4 3 1 3 4
15 15 16 17 19 21 22 23 24 21 19 9 7 2 1 1 2 4 2 2 2 3 2 4 7 5 5 3 7 3 4 1 5 2 5 2 2 2 3 3 7 5 2 2 4 1 5 4 9 7 5 6 5 3 7 9 6 6 4 6 5 3 3 3 4 3 5 4 2 0 1 3 3 3 4 6 4 6 5 3 2 4 4 4 2 8 8
14 14 15 16 18 20 21 23 22 20 19 11 1 3 3 3 1 2 5 3 2 1 2 1 3 5 8 7 11 9 2 4 5 6 6 5 2 3 3 4 1 4 2 3 6 3 6 6 7 10 6 7 1 6 8 11 9 10 8 9 7 5 3 6 4 6 4 3 1 3 3 6 3 2 4 6 8 6 3 3 2 5 3 7 5 10 5
13 14 13 15 16 19 20 20 20 21 19 12 1 2 3 3 2 4 4 5 3 1 2 3 2 4 4 6 6 3 6 3 8 5 6 1 4 4 5 3 0 2 3 9 8 7 7 8 4 1 5 5 4 2 5 10 10 11 17 10 10 2 3 5 8 7 8 7 4 4 1 3 5 6 10 6 7 8 6 2 3 8 3 7 7 6 12
12 11 12 14 14 16 18 19 19 20 21 13 2 0 1 0 3 2 5 4 3 1 2 2 2 3 1 1 2 3 6 8 3 5 4 3 7 5 1 2 5 6 9 8 11 6 5 7 11 12 11 5 6 5 10 5 12 16 8 14 4 2 4 9 11 13 13 10 9 7 1 1 3 4 7 7 7 8 9 9 7 4 2 11 1 3 5
11 10 11 13 14 15 18 19 19 21 22 15 3 2 1 2 0 2 1 0 4 6 2 5 7 4 2 4 1 4 7 6 7 7 2 7 6 3 3 2 4 8 7 10 7 8 11 8 4 5 6 9 9 5 3 3 1 8 6 6 3 3 4 3 8 14 15 12 10 10 5 3 4 5 6 7 7 6 9 6 7 4 4 8 7 6 10
10 10 10 11 13 14 15 16 18 21 22 15 2 3 3 2 1 1 0 1 3 3 5 7 5 10 3 3 3 8 6 9 3 2 8 6 3 3 5 11 14 14 12 5 7 8 8 8 9 6 8 10 9 5 1 2 4 3 4 6 2 1 6 5 7 10 8 8 9 9 8 6 5 7 7 9 8 8 6 5 6 8 7 6 9 11 14
10 9 9 10 12 13 14 16 17 17 20 8 5 5 2 3 2 3 3 2 4 4 2 2 4 4 3 3 2 3 5 9 10 5 2 6 6 3 6 15 17 16 15 5 7 7 8 11 13 13 6 15 6 6 6 3 4 4 5 3 3 3 4 5 3 1 6 10 8 8 9 6 7 7 6 8 8 8 10 6 6 5 6 6 6 9 15
9 9 9 8 10 12 13 15 15 15 14 5 5 2 3 1 0 1 4 5 3 2 0 4 4 2 4 4 4 6 4 12 12 13 7 8 6 6 12 14 18 14 13 8 10 10 10 14 17 18 14 12 8 2 3 5 2 5 4 3 3 6 4 2 3 2 3 2 3 9 8 7 7 8 6 8 9 9 8 8 6 6 8 5 5 7 11
9 9 8 7 8 10 11 13 12 11 10 3 2 3 3 2 2 0 1 1 4 4 3 4 1 1 0 1 3 3 9 10 12 11 4 0 4 8 9 13 10 13 13 16 15 17 18 20 19 15 13 12 15 11 8 3 3 3 5 3 3 5 2 3 2 2 2 3 4 6 4 4 2 9 11 12 9 7 5 7 7 11 9 7 7 13 11
8 8 8 7 7 8 10 10 11 9 5 4 3 2 3 4 4 4 0 2 1 2 5 3 1 2 2 4 7 5 7 8 6 5 5 6 13 6 9 11 8 11 10 12 17 17 19 19 20 14 9 10 12 10 7 11 11 7 5 2 3 4 5 4 1 3 4 4 6 1 4 3 6 7 10 13 13 13 11 8 11 10 8 9 9 11 10
9 8 8 8 7 6 8 8 8 8 4 1 1 1 1 3 4 3 1 4 4 0 0 4 4 4 6 8 3 8 12 12 12 6 11 10 17 14 10 9 3 9 10 17 19 20 20 10 5 4 5 6 9 8 7 8 8 8 8 6 6 4 3 3 1 1 5 3 2 5 1 6 5 4 2 12 14 13 15 13 12 13 13 13 12 12 12
9 9 9 9 7 5 6 7 7 7 4 1 1 0 1 1 2 1 3 2 5 6 7 3 2 8 8 8 7 7 10 12 10 10 10 10 12 11 2 4 8 10 17 20 22 17 8 6 7 2 8 6 1 4 0 3 1 4 7 8 4 2 3 2 1 2 2 1 3 2 3 5 4 2 7 2 5 5 7 7 10 11 12 11 11 14 14
10 10 9 9 8 6 5 6 6 5 6 2 1 1 1 0 2 2 1 2 6 3 5 10 6 3 6 11 9 10 10 10 8 6 6 2 8 15 12 6 10 14 15 14 11 4 6 5 5 8 8 5 2 1 1 1 1 2 3 7 5 8 0 0 2 0 1 1 2 6 3 3 7 4 5 5 1 0 4 7 8 3 1 2 5 8 9
10 10 10 10 9 8 7 7 6 5 5 4 1 1 1 1 1 1 2 1 6 8 5 5 1 3 9 11 7 10 7 8 12 9 7 5 5 3 8 15 14 15 15 8 6 3 1 1 4 7 5 9 10 8 5 2 2 4 7 6 4 2 2 2 1 1 1 3 4 5 4 1 6 4 6 3 2 6 6 3 2 2 2 2 2 3 6
12 11 11 11 11 10 9 7 7 5 5 5 2 3 2 2 2 1 1 2 3 7 2 5 1 8 9 8 7 8 9 9 8 10 11 5 4 14 10 7 14 12 7 3 2 3 5 4 3 5 5 6 6 5 7 8 6 0 3 5 5 5 3 2 1 2 3 2 2 1 1 1 4 11 9 6 4 5 4 2 5 2 2 4 2 7 8
12 12 11 11 11 11 10 8 7 6 6 5 2 2 3 2 1 1 0 2 3 8 4 8 8 5 6 8 4 3 2 7 7 8 9 10 12 12 15 15 11 3 10 4 5 4 7 5 2 1 3 2 5 6 9 4 10 10 6 2 6 5 3 4 1 1 0 1 1 2 2 0 3 10 13 11 10 1 2 2 4 3 6 6 6 7 9
13 13 13 12 11 11 11 9 8 7 7 6 3 2 3 2 3 2 1 2 2 6 5 4 1 1 4 3 8 6 5 4 4 3 6 10 9 5 11 11 10 6 4 6 5 5 4 4 8 3 5 2 3 3 7 9 8 8 8 10 5 4 4 2 2 2 3 1 2 2 3 2 3 7 15 11 5 2 2 6 2 4 8 8 6 8 8
14 13 12 12 12 12 12 11 9 8 7 7 3 3 4 4 3 2 1 3 3 6 2 6 4 8 8 4 7 6 5 7 6 6 8 8 2 5 13 10 2 6 9 5 4 3 4 3 2 2 3 5 3 4 5 6 7 8 7 6 2 2 2 2 0 3 4 0 1 3 3 4 3 9 13 7 1 0 5 1 2 7 9 7 7 10 10
14 14 13 12 12 13 13 12 11 9 9 8 4 4 3 2 4 5 4 4 3 10 9 9 7 12 3 4 5 4 4 4 4 5 4 7 3 13 10 4 2 5 8 2 3 2 3 5 4 2 2 3 3 2 4 4 2 5 5 4 0 4 3 4 4 3 0 2 2 4 2 1 4 14 10 4 2 3 6 9 11 6 8 8 9 9 14
15 14 14 13 14 14 13 12 12 10 9 9 4 2 4 2 3 4 5 4 4 9 7 3 2 7 4 8 9 9 6 10 6 5 6 7 5 3 4 2 5 4 4 3 5 4 1 4 4 2 2 3 5 4 6 8 8 1 2 2 1 3 2 2 1 2 4 3 3 1 5 9 6 4 4 6 4 6 9 5 7 9 4 6 8 9 10
15 15 14 14 15 15 14 13 12 11 10 9 6 2 5 2 3 2 3 4 5 6 7 8 8 13 14 13 13 11 12 13 15 10 7 7 3 5 5 6 7 1 2 1 3 2 3 2 1 3 6 5 2 2 6 6 7 4 1 2 4 1 2 2 2 1 0 2 3 9 9 10 9 5 6 7 9 7 8 8 7 9 5 2 5 9 11
15 15 15 15 15 15 14 14 13 11 11 10 6 3 5 2 2 1 0 6 4 6 6 10 8 10 9 10 12 12 12 12 13 9 7 7 6 5 8 7 7 3 3 1 2 1 3 1 4 3 5 3 3 8 2 3 4 4 8 1 5 3 2 2 1 3 4 6 12 10 6 10 9 5 4 5 10 8 6 7 7 7 7 7 7 9 11
16 15 15 15 16 15 14 14 13 11 10 11 7 3 4 3 2 3 4 4 3 7 8 4 3 6 1 5 2 4 7 7 9 12 9 9 7 4 2 6 2 2 2 3 2 3 3 1 4 0 3 5 2 3 4 5 3 5 6 6 0 2 1 1 2 2 4 5 2 4 5 7 10 8 6 4 4 7 7 8 7 7 8 8 7 7 8
15 15 14 15 15 15 14 14 13 12 11 11 9 4 3 3 3 4 3 3 2 2 8 8 8 11 9 7 7 6 6 8 6 9 8 10 12 9 10 4 6 4 6 4 3 4 2 3 4 1 4 6 1 5 3 2 7 3 7 7 4 5 1 1 3 2 1 4 9 4 5 9 8 6 4 7 11 10 9 7 7 6 6 7 9 9 10
14 14 14 14 14 15 15 14 13 11 9 10 8 4 3 4 0 1 3 4 4 3 7 5 7 3 4 8 9 4 4 4 6 7 8 12 14 15 15 7 9 3 5 2 2 4 3 3 2 3 2 7 2 2 3 4 9 7 4 12 6 5 3 4 0 2 7 6 5 5 3 3 3 5 2 4 5 9 12 9 10 8 9 9 10 7 6
14 14 14 14 14 14 14 12 11 9 9 9 5 3 4 4 4 5 5 2 3 4 3 7 7 5 2 13 15 7 6 6 6 8 9 10 11 11 10 10 10 6 4 5 1 2 1 2 2 5 5 7 1 3 4 6 3 5 4 7 2 2 4 3 4 5 7 4 8 6 6 5 7 3 3 8 7 7 12 13 11 9 9 9 11 13 13
13 13 14 13 13 15 14 13 11 9 8 8 5 3 3 5 5 7 7 6 6 5 4 7 8 12 11 13 5 2 6 6 8 9 9 10 11 10 11 11 8 7 3 2 5 2 2 1 7 4 2 5 3 5 2 5 3 5 3 6 1 3 5 5 8 6 8 8 7 5 5 7 9 5 4 6 7 6 9 10 9 10 10 10 9 10 12
12 13 12 12 12 14 14 13 11 8 8 6 1 3 6 8 8 7 8 6 7 4 4 7 9 8 6 9 11 10 4 4 6 8 8 9 9 10 11 11 10 8 3 2 2 1 2 6 2 3 4 4 1 5 5 4 4 5 8 5 6 7 4 6 10 9 10 7 4 1 2 6 7 5 3 5 2 7 9 9 7 8 9 10 9 7 8
12 12 12 12 13 14 13 11 10 8 7 3 1 2 2 3 0 2 4 5 4 1 2 4 7 4 4 4 8 8 11 9 6 7 9 8 8 9 11 10 9 8 5 4 5 3 4 3 3 3 3 0 2 1 1 2 4 8 4 12 18 18 14 8 5 4 7 3 5 6 4 6 5 4 3 4 6 7 7 9 9 8 9 8 9 9 5
12 12 12 13 13 13 14 13 10 10 8 3 2 0 1 1 1 1 5 4 4 2 2 2 7 6 8 3 4 9 12 14 11 9 7 7 9 9 7 7 4 7 5 2 1 5 1 3 0 3 1 1 2 1 3 3 5 6 12 19 16 17 16 14 7 3 4 5 7 3 2 3 6 6 5 8 11 8 9 12 10 7 9 10 11 10 7
12 12 11 12 12 12 12 13 11 10 5 5 6 4 5 2 1 2 2 2 1 1 0 4 5 2 4 5 4 3 8 11 5 3 4 1 3 2 3 9 6 7 6 5 2 1 3 4 2 4 2 2 2 2 1 1 4 9 17 18 17 15 15 12 9 8 5 4 6 5 4 6 5 5 4 6 7 4 3 6 6 9 9 8 8 10 4
10 10 11 11 12 14 13 12 11 7 4 4 8 14 15 17 15 11 2 0 1 1 1 1 3 2 3 6 9 6 2 4 3 4 6 1 2 0 0 2 3 2 3 4 1 3 3 2 1 2 4 0 1 0 2 3 6 12 11 12 14 15 15 13 9 7 8 8 3 2 4 4 4 5 4 2 6 8 8 7 5 9 4 5 4 8 11
10 10 10 11 13 14 13 11 9 6 2 2 6 7 6 10 11 13 2 2 1 1 1 1 3 4 6 4 5 7 3 3 5 3 5 4 1 1 2 1 0 2 3 5 4 0 2 1 3 3 1 1 1 2 3 6 12 12 12 13 15 16 12 11 11 11 13 11 6 3 3 4 5 5 5 9 8 6 6 5 4 3 6 8 9 8 7
10 11 11 13 13 12 11 10 4 3 3 2 4 6 4 7 8 5 7 3 3 0 0 1 1 5 5 4 2 8 2 2 3 2 0 6 1 1 1 1 1 1 2 1 0 1 1 4 3 2 2 3 4 3 1 7 13 14 13 12 13 15 15 16 14 15 13 11 6 4 5 6 6 7 7 8 9 5 8 8 7 6 9 9 9 8 7
11 13 15 15 14 10 5 4 2 3 3 4 4 3 4 4 6 5 7 2 1 2 1 1 2 4 2 4 5 5 3 3 2 2 3 2 6 1 2 1 1 3 0 1 3 1 1 1 2 1 3 5 1 0 4 7 11 13 13 13 14 11 9 10 12 16 15 12 6 3 4 2 3 4 5 5 5 9 7 5 8 7 8 7 7 7 7
14 16 18 15 6 3 1 2 1 4 4 3 4 2 3 7 4 5 2 0 1 1 2 1 4 6 5 4 2 6 4 4 4 4 4 2 2 2 3 2 1 2 0 1 1 1 3 1 6 3 3 2 4 2 0 6 9 10 11 12 11 11 12 12 12 11 10 10 12 11 6 5 5 5 5 5 7 7 9 10 8 7 7 6 5 7 6
18 16 8 4 3 2 1 2 4 4 8 5 1 2 2 3 1 1 1 1 2 2 2 2 7 2 2 2 6 5 1 5 2 2 4 1 1 2 0 0 1 1 3 1 2 2 1 4 2 3 2 1 1 2 3 4 2 6 8 9 11 11 9 8 11 14 15 13 12 14 13 12 10 7 7 8 8 7 7 6 6 5 4 6 6 6 8
15 5 3 1 2 2 3 3 2 6 6 2 1 1 1 0 1 0 1 1 1 3 1 4 6 5 5 5 8 3 3 2 5 2 1 3 1 4 2 2 3 1 1 1 3 1 1 1 1 2 2 4 5 6 6 6 5 4 6 8 9 9 10 11 10 10 8 4 7 8 6 5 4 7 8 8 9 9 6 5 4 4 5 6 6 6 7
5 3 3 3 3 4 3 2 9 6 2 2 0 1 0 0 1 2 0 1 2 2 2 6 3 5 8 10 5 6 1 5 3 2 2 7 0 1 1 0 2 1 1 0 4 2 1 0 0 2 2 5 6 6 6 6 6 8 8 8 9 10 10 10 10 9 8 8 6 5 5 5 2 7 8 9 8 8 9 5 5 5 5 5 5 6 6
2 3 3 3 3 1 1 4 2 1 1 1 0 0 1 1 2 1 1 2 3 4 3 4 1 2 3 3 3 7 4 0 2 1 1 2 3 1 1 1 1 1 1 0 3 2 2 2 3 2 1 4 5 6 7 6 6 6 7 8 10 11 12 12 12 11 13 13 13 12 10 8 5 3 4 6 2 5 7 4 4 5 5 6 6 5 4
5 5 4 3 2 2 2 1 1 1 0 0 1 2 2 2 0 0 2 2 4 2 3 3 2 4 5 10 7 4 5 3 1 1 1 2 1 0 2 1 1 1 1 2 0 1 3 2 1 1 2 4 5 5 5 5 5 5 7 8 10 11 13 13 13 13 11 10 10 10 10 9 8 5 3 2 0 3 5 4 4 4 4 3 3 5 6
10 6 4 3 2 0 1 1 1 1 2 2 1 2 1 1 3 3 2 2 1 2 2 1 3 1 0 3 1 4 4 2 1 1 1 2 1 1 1 1 1 1 2 2 1 1 3 0 0 2 3 4 5 4 4 4 5 5 5 5 6 8 9 11 11 10 9 9 10 10 10 9 8 8 4 1 1 2 3 4 1 1 3 4 5 5 7
5 3 2 1 2 1 1 3 1 1 1 1 3 4 2 1 3 0 1 3 2 2 3 4 4 5 4 3 2 1 1 2 1 0 1 1 1 0 1 0 1 3 0 1 2 2 1 2 5 3 3 3 4 4 4 5 5 6 8 7 7 9 10 11 13 15 16 14 13 13 11 11 10 9 7 4 2 1 2 5 2 1 2 4 5 5 5
3 1 1 1 1 1 2 1 1 1 4 4 3 4 4 5 5 5 6 4 2 2 1 4 2 3 3 3 1 1 1 1 1 1 2 0 1 0 1 2 2 1 1 3 1 1 1 1 3 2 3 3 4 4 4 4 6 7 7 8 11 12 12 13 13 12 12 12 12 12 11 11 11 11 10 9 6 1 0 3 3 1 3 4 5 5 5
2 4 3 3 3 2 2 2 2 4 2 3 5 6 5 6 5 4 5 1 2 4 3 3 3 1 1 1 2 1 0 1 0 1 0 1 1 2 2 0 1 1 1 1 0 2 4 4 2 3 3 3 3 3 4 5 5 5 8 10 10 10 11 10 11 10 10 12 11 10 11 10 11 11 11 10 9 8 5 3 4 2 3 4 3 3 3
2 0 1 0 2 2 1 4 5 5 4 3 5 6 7 7 6 3 2 1 2 4 4 3 1 2 1 1 0 2 1 1 1 2 1 0 2 2 1 0 2 0 1 1 2 4 3 3 3 2 2 3 3 4 4 6 6 7 7 7 8 10 10 11 11 12 12 12 12 12 11 12 12 11 10 10 9 8 7 5 5 5 1 1 0 0 2
3 1 2 2 3 3 7 6 2 3 2 3 2 4 5 1 2 6 5 4 5 1 3 1 2 2 1 2 1 2 2 0 1 4 1 1 1 1 1 0 1 1 1 2 2 3 2 1 1 1 2 3 3 4 5 6 6 7 8 9 9 11 11 12 12 12 13 13 12 12 11 12 13 12 11 11 10 10 8 6 4 5 1 0 0 2 3
2 3 4 3 2 2 3 2 3 5 5 3 2 1 1 2 5 8 7 1 3 7 6 4 2 2 2 0 1 0 1 0 1 2 0 1 1 2 1 1 1 1 2 2 1 1 1 1 1 3 4 4 4 4 3 4 5 6 7 8 8 8 8 9 10 10 11 10 10 11 12 11 10 11 12 12 11 11 9 7 5 5 4 1 0 1 2
2 1 0 1 1 3 2 0 2 4 3 3 2 3 2 3 5 8 3 2 2 2 2 1 1 1 1 0 1 1 1 1 1 0 1 1 2 1 1 1 1 2 0 1 1 1 1 2 3 5 4 3 3 4 5 5 5 5 5 5 5 7 8 9 10 10 10 10 11 11 11 10 11 12 13 14 13 11 10 8 5 4 5 2 1 0 0
0 0 3 2 5 3 4 3 5 3 1 3 3 4 3 3 4 5 2 3 3 2 1 2 1 1 0 1 1 0 2 0 0 1 2 2 1 1 1 2 1 1 1 0 3 3 2 3 4 3 3 4 4 4 4 5 5 6 5 5 6 6 6 7 8 9 10 10 10 10 12 11 11 12 12 10 10 10 11 10 9 8 7 6 3 2 1
2 3 4 4 4 4 2 1 1 2 3 3 2 3 1 2 2 5 1 2 4 4 4 1 2 1 1 2 3 2 1 1 0 0 1 2 0 2 1 3 2 2 5 4 3 3 3 3 3 4 2 3 4 4 4 5 5 5 5 5 6 7 7 8 8 8 9 9 9 9 9 10 11 10 10 11 12 12 12 11 12 13 11 8 8 5 4
Wind_Direction
334 339 338 337 337 338 340 341 339 340 344 352 344 337 19 46 235 256 315 350 51 44 77 228 36 299 249 295 275 251 276 234 270 317 286 314 216 287 245 237 238 238 213 258 250 242 269 232 220 233 231 257 232 242 97 14 325 282 285 60 239 114 210 208 254 279 272 262 254 249 237 214 263 253 209 155 177 181 196 189 194 263 300 359 346 235 245
334 338 338 338 337 338 341 342 340 338 351 337 321 47 52 256 258 318 316 46 76 73 38 338 336 309 300 304 276 223 245 312 321 274 297 291 321 207 259 285 195 270 156 205 271 40 322 225 245 270 239 265 261 201 246 190 224 210 219 180 174 167 200 192 269 304 315 310 29 16 54 160 195 197 198 196 195 186 195 195 184 243 217 195 171 247 241
332 335 337 338 337 336 340 342 337 337 344 349 354 3 300 279 244 245 300 357 56 25 185 11 316 329 325 338 319 329 331 221 276 293 286 293 245 340 276 258 285 252 234 250 246 200 203 283 262 267 261 265 281 154 227 222 216 214 207 201 151 209 179 156 209 222 239 258 241 244 233 210 211 195 178 198 190 188 127 219 192 227 250 202 214 252 272
330 334 338 340 338 338 340 340 338 337 343 350 198 291 359 19 11 311 339 10 17 54 131 84 81 324 342 328 294 283 311 313 299 316 294 240 319 289 254 319 115 268 334 303 301 287 200 206 280 307 296 289 296 132 259 223 227 223 217 184 145 197 186 204 214 221 233 227 217 258 142 137 191 205 185 197 196 190 184 134 174 215 220 238 251 276 303
329 336 339 340 340 338 341 341 339 339 338 355 145 8 131 248 64 344 331 345 48 22 17 56 51 312 321 274 295 335 337 309 303 44 311 348 348 295 270 269 347 320 329 313 302 283 281 223 244 266 270 251 260 5 301 269 234 231 206 149 101 96 233 225 225 240 246 246 231 249 188 319 268 191 208 190 184 185 187 197 225 184 236 268 230 249 294
324 330 334 341 342 343 345 343 340 342 338 349 134 25 1 58 276 98 200 115 288 10 324 7 324 285 166 251 284 339 336 353 335 308 219 334 316 326 323 14 316 301 307 309 297 315 308 287 242 273 261 292 294 316 9 297 331 111 125 162 126 162 241 239 199 239 245 248 250 255 276 238 240 209 185 200 204 193 196 220 223 203 208 247 271 279 280
315 320 328 339 344 344 345 346 346 343 340 344 98 66 328 120 261 150 19 70 251 176 274 315 285 306 260 242 22 344 339 324 323 307 308 319 306 38 317 314 320 319 317 326 283 297 318 315 299 291 302 293 306 297 353 234 92 73 132 182 120 86 254 226 217 252 258 247 238 251 250 256 247 232 212 200 193 209 209 223 218 211 236 237 267 285 280
305 312 321 335 342 343 345 349 350 348 341 347 63 58 63 358 30 318 334 220 267 277 288 254 309 310 335 14 298 325 312 314 322 315 271 310 296 303 332 314 316 315 308 302 271 262 247 263 287 297 302 299 278 269 226 204 189 145 191 168 228 197 267 149 213 236 251 250 245 240 235 228 261 255 222 201 185 197 215 228 241 234 261 257 285 291 288
297 306 313 324 339 341 341 349 355 354 348 37 28 61 48 289 251 275 320 317 258 237 296 333 321 343 329 29 320 328 335 325 326 303 266 225 266 340 316 307 310 307 304 289 246 255 267 279 268 270 268 262 259 165 302 151 168 205 204 195 200 184 271 159 155 182 309 308 192 229 218 219 234 276 256 195 185 198 205 215 210 218 237 259 287 292 276
289 297 300 306 329 338 338 349 357 5 358 60 352 31 331 329 267 203 155 322 307 348 318 306 7 3 248 353 319 335 306 304 323 327 295 316 270 292 302 303 300 297 312 308 308 313 306 292 283 273 257 238 252 215 218 129 196 188 214 236 210 204 251 303 278 342 199 257 250 273 160 136 235 250 228 194 200 198 194 217 200 213 211 231 235 241 247
282 288 287 289 306 330 337 344 355 13 32 42 20 13 350 16 330 331 316 273 286 92 356 292 75 251 344 328 308 284 279 302 317 326 306 322 299 297 304 298 305 294 285 287 302 299 290 285 280 273 261 241 244 249 214 216 231 174 171 194 251 204 232 254 253 334 276 161 249 242 94 110 230 232 182 177 190 193 202 214 214 220 191 222 220 240 259
273 274 277 276 288 314 331 332 346 1 67 93 170 229 278 337 314 252 341 340 291 349 172 272 282 301 310 305 306 304 313 320 309 288 275 286 284 298 302 295 297 308 291 304 308 307 304 283 251 291 258 247 245 255 251 233 230 193 178 188 225 240 227 255 143 238 286 340 59 88 86 223 245 324 210 190 192 193 205 213 212 216 220 235 255 265 263
267 269 270 273 275 286 310 315 330 345 360 78 116 170 273 299 262 308 292 298 278 329 328 282 265 283 282 293 308 298 295 293 286 285 272 273 294 304 285 295 299 284 305 307 310 315 331 319 311 312 297 328 337 214 73 326 231 186 193 213 231 244 218 216 276 212 274 41 31 94 230 246 307 315 39 331 183 214 203 245 242 231 222 217 236 245 254
260 263 267 269 266 261 279 296 308 324 334 349 28 209 246 20 25 297 337 334 288 266 284 298 297 288 323 316 311 301 302 301 299 268 287 265 285 290 293 287 288 296 299 303 296 327 337 23 357 348 340 338 295 339 39 91 73 24 283 267 219 259 220 15 292 334 3 257 237 224 289 353 360 13 13 5 2 313 160 212 256 226 186 205 231 257 251
254 255 259 263 260 254 258 278 283 300 315 321 270 262 222 233 246 290 317 254 293 294 248 251 339 291 322 308 321 317 324 318 331 322 294 265 263 239 299 300 305 310 308 318 329 16 55 339 16 344 326 11 6 332 328 1 304 257 261 300 302 176 180 243 351 296 124 314 331 342 26 32 286 257 302 307 295 259 258 176 282 267 22 12 344 276 264
250 250 250 257 261 257 256 259 268 275 288 310 282 273 241 234 212 215 224 280 308 304 256 214 290 322 314 306 316 318 319 326 326 313 314 319 280 315 310 302 311 307 317 339 348 15 347 43 335 3 10 350 317 308 329 322 331 97 49 2 44 32 71 103 88 312 8 16 22 286 84 250 220 283 303 311 251 246 227 141 272 263 7 359 350 302 295
246 246 243 246 255 255 251 248 253 259 263 286 277 283 292 199 165 166 113 271 219 247 298 304 301 298 301 298 302 303 323 317 327 340 329 328 330 315 300 326 314 322 353 2 353 22 8 24 310 260 273 291 345 335 294 332 328 324 340 116 35 37 356 3 33 351 346 77 0 296 212 88 319 314 328 324 306 262 69 353 281 287 339 333 338 315 302
244 244 245 247 248 252 249 246 247 247 259 267 257 268 275 202 190 153 209 245 294 280 252 222 109 298 278 283 295 295 287 277 277 266 258 297 305 312 334 334 336 327 36 16 0 23 8 9 7 353 320 275 296 287 353 320 323 338 329 329 336 4 336 44 1 359 336 16 294 289 307 280 281 325 321 318 306 67 124 213 236 302 324 323 323 298 293
240 241 242 244 247 248 247 244 241 245 249 262 265 271 255 229 188 163 132 230 204 255 211 303 301 273 264 270 251 269 258 282 296 308 310 316 260 316 318 278 264 332 354 347 3 29 19 350 278 292 303 317 355 345 297 336 334 311 314 337 328 353 306 281 110 17 340 242 195 249 246 239 281 339 333 311 356 308 232 226 307 320 311 313 304 303 308
238 238 239 240 240 243 245 240 239 239 241 245 228 255 257 260 216 185 193 250 227 271 275 266 251 260 252 238 270 267 291 277 231 262 273 270 338 349 336 18 328 12 317 11 29 316 50 348 333 310 317 313 271 278 317 292 276 274 314 326 284 333 331 339 351 323 272 43 339 340 351 238 43 352 334 5 48 254 321 324 325 314 294 305 306 303 295
236 235 235 236 241 245 242 238 236 236 235 242 246 271 285 211 235 208 203 224 266 292 294 236 241 242 238 245 234 235 232 263 259 245 243 255 315 1 319 256 330 6 307 1 4 338 7 332 339 333 291 295 296 355 337 315 307 246 194 1 287 270 322 347 345 355 339 345 5 314 236 286 330 354 295 302 304 296 298 302 286 294 246 260 281 287 279
235 233 234 232 238 241 241 238 232 231 235 237 235 231 274 225 210 172 202 186 250 236 263 275 275 272 262 252 253 243 244 247 254 241 260 278 192 215 256 293 289 276 276 22 28 347 11 326 315 346 323 307 357 284 303 327 324 303 228 204 344 145 217 243 264 260 83 251 237 250 263 277 288 283 266 279 298 308 296 290 285 293 288 223 267 268 271
234 233 231 230 233 236 238 236 230 227 233 235 224 222 252 301 290 282 354 277 235 259 265 277 269 266 270 256 240 236 233 228 243 248 218 239 272 199 235 252 270 218 260 207 232 201 247 29 277 233 301 246 288 317 312 204 267 331 333 297 225 274 220 186 197 249 231 241 236 264 304 286 291 285 243 287 307 303 303 304 306 300 287 286 280 283 280
233 231 229 228 230 232 234 232 227 222 224 228 227 193 249 236 277 305 268 236 265 295 284 226 19 312 277 297 261 217 219 231 219 229 217 184 243 286 261 232 210 279 256 250 179 347 276 195 250 37 274 272 307 286 316 332 285 297 321 318 246 264 197 155 226 288 6 322 306 159 251 282 298 301 289 307 284 298 317 313 302 293 291 300 294 283 282
232 230 229 227 226 228 229 229 224 218 217 228 233 226 229 267 233 231 285 314 315 331 299 309 276 250 264 247 263 265 229 228 210 218 209 193 207 222 245 194 187 197 269 302 340 353 26 313 319 323 296 270 167 280 199 245 289 69 343 282 332 324 221 312 241 278 194 251 298 298 272 265 276 283 339 332 316 327 327 301 297 310 311 330 320 327 320
231 230 227 224 224 225 227 226 218 207 209 223 225 213 231 248 318 329 300 276 264 265 282 284 279 303 313 313 288 246 258 257 247 237 212 206 208 217 244 267 273 270 286 307 349 281 239 267 240 244 213 285 159 233 250 192 275 292 234 267 229 254 3 293 250 301 276 289 287 310 310 270 268 331 303 247 285 326 319 326 337 343 349 332 317 330 311
228 226 225 223 220 222 225 222 212 198 202 216 230 219 234 257 219 218 233 244 312 283 216 259 271 276 342 299 286 294 263 241 239 233 239 226 222 227 235 247 259 271 270 297 306 217 207 229 162 248 185 237 230 239 269 293 246 296 291 276 311 351 297 257 8 337 325 320 323 359 353 315 290 287 296 305 326 334 331 341 334 341 339 333 350 340 335
225 223 223 220 218 220 222 215 206 192 196 216 231 234 242 249 231 221 215 209 191 240 286 286 298 297 306 271 262 253 269 252 242 247 237 233 222 221 223 234 236 254 228 195 289 242 203 216 250 232 243 292 341 290 233 266 320 293 244 268 266 324 282 338 328 311 292 297 325 354 282 256 261 263 291 309 333 327 341 327 333 338 337 334 352 339 314
222 221 221 217 215 217 216 210 197 181 195 201 126 297 270 240 249 231 218 202 210 243 262 275 276 285 289 297 308 300 258 211 245 234 240 239 221 214 217 220 218 212 173 177 184 158 193 237 186 215 250 210 145 278 0 330 328 293 282 309 334 285 252 280 283 283 277 281 279 53 235 270 295 313 320 303 352 345 329 305 337 341 332 327 332 324 295
219 216 214 212 214 214 208 198 180 171 167 127 96 271 316 333 248 286 176 184 181 255 290 316 305 274 310 302 290 302 306 298 265 247 243 242 229 214 213 205 218 197 178 181 167 235 227 235 260 268 279 207 226 253 343 262 311 283 317 345 333 325 313 285 266 232 271 323 334 318 281 287 296 304 310 309 338 352 314 332 334 335 334 337 329 311 299
213 212 209 211 207 204 199 184 170 171 158 125 143 202 126 257 214 13 107 134 158 209 241 225 261 306 305 247 281 297 307 310 309 306 271 234 228 218 211 185 210 155 187 203 207 230 119 264 288 284 278 210 145 248 251 307 304 298 344 340 330 330 327 311 301 248 256 295 308 299 274 315 326 350 23 352 344 340 350 349 337 356 354 355 341 319 325
216 209 204 200 195 190 184 175 175 174 163 176 195 171 169 163 114 144 141 154 247 207 286 322 308 310 288 298 278 264 287 285 287 301 282 203 298 176 165 175 189 183 161 171 210 127 235 222 182 262 309 247 138 271 320 8 339 325 332 331 332 328 331 319 333 347 348 336 348 2 351 331 14 27 306 310 308 334 10 304 345 20 4 346 334 307 337
207 204 198 191 180 176 171 171 177 170 195 232 273 287 287 284 279 273 252 192 52 213 129 106 245 300 277 290 313 299 256 329 345 8 319 222 247 259 350 120 129 118 206 105 216 204 219 149 174 322 257 207 143 237 46 43 341 317 323 325 324 333 328 323 335 355 347 336 26 10 305 308 303 303 269 330 348 358 358 348 13 46 354 276 309 356 9
195 193 186 175 167 165 163 171 166 177 187 260 269 251 241 241 252 261 198 111 134 264 79 178 291 277 280 338 339 285 6 3 289 1 323 284 226 9 250 40 228 138 206 174 250 352 317 109 218 239 23 357 49 63 8 318 325 328 335 332 337 330 331 334 353 345 339 329 325 322 287 279 271 270 9 23 6 6 338 349 359 63 32 22 17 11 359
182 176 165 154 153 148 155 159 145 166 226 234 255 257 251 233 215 186 157 138 101 326 227 256 234 296 313 323 298 276 320 17 305 295 228 276 30 302 308 73 328 68 290 104 23 192 247 242 173 69 315 330 48 27 312 311 328 338 340 333 339 350 355 358 338 331 321 319 328 340 322 322 352 8 11 0 342 356 23 356 348 33 48 21 18 10 16
167 151 142 142 136 137 123 143 162 182 227 224 235 237 229 242 234 185 173 183 106 154 177 214 179 245 236 294 308 284 342 318 265 305 236 289 331 0 83 110 7 256 207 122 216 358 232 263 70 348 308 64 60 179 326 323 340 341 341 345 346 348 328 311 308 316 317 297 284 322 339 342 6 351 349 330 335 354 9 15 5 9 48 39 18 11 15
138 134 131 121 104 73 143 195 162 194 219 191 220 261 27 94 73 85 80 291 264 198 221 217 245 231 190 247 266 275 14 313 328 332 330 1 278 294 30 34 245 277 27 356 4 322 271 65 95 68 30 58 350 246 27 3 349 336 337 331 331 339 337 334 327 313 304 329 357 360 1 5 4 352 341 344 353 344 356 2 358 3 35 38 28 31 21
130 126 117 104 92 103 255 240 204 221 195 209 249 41 347 18 59 355 53 137 266 206 244 201 250 228 137 207 253 254 15 268 50 346 307 244 349 304 19 147 246 14 315 272 256 188 64 36 82 121 121 265 314 286 296 289 322 325 318 339 344 338 330 334 349 6 9 358 355 344 342 355 11 10 5 349 343 340 336 334 341 332 5 31 28 25 30
129 119 85 129 125 183 192 251 170 128 110 82 76 64 318 344 74 267 217 208 290 220 184 213 243 188 194 220 259 275 206 282 333 27 311 273 80 311 6 27 298 53 322 22 293 28 72 354 38 57 53 333 352 342 340 324 301 313 342 356 339 332 341 353 4 12 5 332 289 297 301 306 12 13 17 28 13 351 336 326 323 351 14 20 13 16 27
128 130 145 142 210 234 238 190 144 134 100 86 336 106 173 286 128 242 60 170 237 224 205 240 206 196 195 210 227 303 180 141 188 280 233 303 205 215 268 74 266 79 285 74 260 10 59 286 317 65 345 336 326 312 332 331 345 349 355 344 343 346 356 357 354 353 355 351 351 342 331 311 277 74 49 24 9 347 326 355 10 10 23 20 7 26 10
141 102 122 191 199 184 251 144 157 37 90 76 81 325 92 255 215 191 145 221 238 237 196 198 191 251 238 211 188 243 277 167 244 165 129 252 256 91 44 278 241 67 323 284 280 54 64 69 16 83 277 300 307 318 326 338 349 343 347 351 354 355 355 354 358 359 359 0 356 355 348 343 320 42 100 92 20 314 302 317 18 8 20 18 8 339 307
160 150 174 132 137 109 86 51 84 84 356 183 128 233 203 224 294 341 165 175 241 218 260 172 242 210 227 186 200 192 266 208 166 137 141 294 295 162 246 304 2 95 262 237 168 51 72 73 4 295 262 292 307 316 331 335 339 342 347 358 359 354 354 356 353 355 1 356 351 352 348 344 336 336 1 48 222 296 311 317 44 14 9 331 340 352 352
105 96 88 100 69 308 110 91 239 125 164 172 93 302 259 185 208 176 246 248 259 164 257 187 233 189 274 122 266 210 215 203 191 265 136 245 290 55 75 0 42 350 239 314 58 41 53 124 200 250 263 297 309 322 331 327 321 337 340 355 5 355 355 352 353 345 349 357 354 352 346 343 335 316 312 320 58 6 317 288 297 352 2 14 6 356 352
77 68 64 358 102 269 124 204 183 81 234 190 169 204 194 268 296 204 240 257 229 252 220 167 231 165 252 222 181 229 268 291 136 82 308 301 85 312 47 275 230 243 63 37 46 80 190 224 214 233 271 295 313 335 332 337 347 348 355 357 1 5 2 357 359 1 356 353 354 352 347 350 341 333 320 333 340 30 312 304 302 320 2 42 23 357 343
107 78 83 61 133 221 105 253 153 186 212 193 188 215 179 194 223 182 202 237 143 220 240 202 192 139 222 267 34 305 133 247 301 103 252 300 357 345 118 257 253 25 57 274 14 347 4 277 279 295 294 304 310 330 322 348 3 359 336 347 5 5 6 4 357 351 350 352 345 341 344 343 342 338 328 318 312 294 267 278 301 7 47 53 37 15 355
132 162 144 153 185 225 200 222 153 219 232 178 208 197 190 227 170 217 249 159 233 300 349 293 261 185 205 230 155 233 346 87 12 243 197 68 89 275 244 226 83 42 349 51 70 204 215 231 253 257 267 284 310 316 344 356 354 353 9 6 349 356 359 358 354 348 344 342 341 342 337 340 342 337 328 315 311 314 319 297 299 266 97 60 38 10 329
85 67 107 143 170 204 139 206 208 206 183 210 212 186 206 216 214 203 231 183 240 252 284 304 274 242 277 302 345 340 19 71 223 268 74 298 208 258 13 72 278 186 153 277 253 251 268 259 241 249 287 323 342 352 357 359 358 5 3 355 356 356 354 356 353 351 341 338 339 345 345 341 336 329 330 329 322 308 307 311 303 278 111 107 203 290 355
146 192 117 173 209 166 202 232 180 272 238 195 231 202 230 245 324 280 244 207 231 251 256 223 282 338 351 300 91 212 247 16 250 283 176 224 38 35 11 20 293 258 174 157 225 224 226 242 244 353 23 21 20 11 5 359 357 359 358 357 357 357 355 352 350 346 343 342 339 340 340 340 335 332 333 327 315 307 300 294 291 297 335 9 355 30 42
149 149 173 219 207 183 230 254 179 242 256 255 186 186 167 201 239 255 268 205 212 244 201 143 193 111 250 262 110 12 281 311 128 257 19 33 149 220 162 224 190 317 272 168 207 210 224 281 143 100 48 29 15 11 1 353 352 353 353 355 355 349 347 347 343 338 336 339 339 340 339 336 330 330 328 331 330 316 309 298 286 284 271 239 97 55 25
112 297 58 171 338 274 216 89 154 256 257 247 293 260 207 223 255 268 217 221 219 124 62 27 63 101 243 112 309 354 263 262 182 305 62 260 216 233 112 284 244 178 245 285 258 324 12 61 71 55 31 18 1 6 359 352 348 344 341 341 350 355 352 346 342 341 341 340 341 337 333 338 344 339 334 329 315 302 297 290 289 291 285 269 189 195 142
311 140 246 200 188 225 142 204 201 223 261 241 200 232 186 229 227 260 254 173 128 89 86 186 211 108 93 31 61 27 260 203 48 236 169 218 218 99 170 189 229 227 211 113 83 62 47 38 54 57 19 9 352 345 352 347 339 335 330 342 355 356 353 350 345 341 341 344 343 343 347 348 343 336 329 325 329 345 355 344 345 339 317 305 280 237 271
149 183 232 247 209 214 207 344 333 223 216 221 216 236 164 269 260 264 273 93 111 159 217 195 103 81 73 192 218 198 296 37 242 25 351 283 137 130 215 190 199 204 169 141 104 72 55 40 42 40 24 356 346 343 341 342 335 333 340 352 1 359 357 352 350 346 342 343 348 346 340 342 344 342 340 350 358 6 3 342 332 331 327 315 301 280 247